Location: ??????
(55.2000°N, 38.3000°E)
Time: 17:08:17
(UTC+00:00)

Cosmos 1484 Rocket - Pass Details

Date: 15 November 2025
Orbit: 441 x 473 km, 97.6° (Epoch: 14 December)

Event Time Altitude Azimuth Distance (km) Brightness Sun altitude
Rises 02:49:16 0° 20° (NNE) 2,545 6.4 -18.2°
Reaches altitude 10° 02:51:27 10° 29° (NNE) 1,659 5.5 -17.9°
Maximum altitude 02:54:47 36° 98° (E) 772 4.2 -17.5°
Drops below altitude 10° 02:58:03 10° 166° (SSE) 1,636 5.5 -17.0°
Sets 03:00:12 0° 175° (S) 2,503 6.4 -16.7°
